Simultaneous Nadir Overpasses (SNOs) Predictions

Prediction of SNOs between NOAA-19 and NPP Satellite Orbit:

Table of predicted SNOs for the next 14.0 days since TLE Epoch: 10/7/2023
Index Date (NOAA-19) Time (NOAA-19) Lat,Lon (NOAA-19) SZA (NOAA-19 ) Date (NPP) Time (NPP) Lat,Lon (NPP) SZA (NPP ) Distance(km) Time Diff (sec)
1 10/07/2023 17:39:15 74.01, -98.79 79.82 10/07/2023 17:40:21 74.07, -95.92 79.73 88.04 66
2 10/07/2023 18:30:03 -74.62, 70.10 99.66 10/07/2023 18:31:16 -74.61, 70.02 99.67 2.64 73
3 10/07/2023 19:21:01 74.62,-122.62 80.37 10/07/2023 19:22:02 74.62,-122.71 80.36 2.59 61
4 10/07/2023 20:12:02 -74.61, 44.58 99.64 10/07/2023 20:12:46 -74.62, 44.62 99.64 1.76 44
5 10/07/2023 21:03:00 74.61,-148.14 80.39 10/07/2023 21:03:32 74.63,-148.11 80.40 2.56 32
6 10/07/2023 21:54:00 -74.64, 19.19 99.58 10/07/2023 21:54:16 -74.63, 19.22 99.60 1.74 16
7 10/07/2023 22:44:58 74.65,-173.53 80.45 10/07/2023 22:45:02 74.64,-173.51 80.44 0.71 4
8 10/07/2023 23:35:58 -74.68, -6.20 99.52 10/07/2023 23:35:47 -74.69, -6.31 99.51 3.59 11
9 10/08/2023 00:26:56 74.69, 161.08 80.50 10/08/2023 00:26:32 74.65, 161.08 80.48 3.46 24
10 10/08/2023 01:17:57 -74.67, -31.72 99.50 10/08/2023 01:17:17 -74.70, -31.72 99.47 3.36 40
11 10/08/2023 02:08:55 74.68, 135.56 80.52 10/08/2023 02:08:02 74.66, 135.68 80.52 3.67 53
12 10/08/2023 02:59:55 -74.70, -57.11 99.45 10/08/2023 02:58:47 -74.71, -57.12 99.43 0.60 68
13 10/08/2023 03:50:49 74.90, 110.73 80.74 10/08/2023 03:49:37 74.92, 109.61 80.82 32.39 72



Historial Predications of SNOs between NOAA-19 and NPP
